Temperature
14 14 14 14 14 14 13 13 13 13 12 12 12 12 12 12 12 12 12 12 12 12 12 12 12 11 11 11 11 11 10 10 10 10 10 10 10 10
14 13 14 14 13 13 13 13 13 13 13 12 12 12 12 12 12 12 12 12 11 11 11 11 11 11 11 11 11 11 10 10 10 10 10 10 10 9
13 13 13 13 13 13 13 13 13 13 13 12 12 12 12 12 12 12 11 11 11 11 11 11 11 11 11 11 10 10 10 10 10 10 9 9 9 9
13 13 13 13 13 13 13 13 13 12 12 12 12 12 12 11 11 11 11 11 11 11 11 11 11 11 11 10 10 10 10 10 10 9 9 9 9 9
13 13 13 13 13 13 12 12 12 12 12 12 12 12 11 11 11 11 11 11 11 10 10 10 10 10 10 10 10 10 10 10 9 9 9 9 9 9
13 13 13 12 12 12 12 12 12 12 12 12 12 11 11 11 11 11 11 10 10 10 10 10 10 10 10 10 10 10 9 9 9 9 9 9 9 9
13 13 12 12 12 12 12 12 12 12 12 12 11 11 11 11 11 10 10 10 10 10 10 10 10 10 10 10 9 9 9 9 9 9 9 9 9 9
13 12 12 12 12 12 12 12 12 12 12 11 11 11 11 11 10 10 10 10 10 10 10 10 9 9 9 9 9 9 9 9 8 8 8 8 8 8
12 12 12 12 12 12 12 12 12 11 11 11 11 11 11 11 10 10 10 10 10 9 9 9 9 9 9 9 9 8 8 8 8 8 8 8 8 8
12 12 12 12 12 12 11 12 12 11 11 11 11 11 10 10 10 10 9 9 9 9 9 9 9 9 9 9 8 8 8 8 8 8 8 7 7 7
12 12 12 12 12 11 11 11 11 11 11 11 11 10 10 10 10 9 9 9 9 9 9 8 8 8 8 8 8 8 8 8 8 8 7 7 7 7
12 12 12 12 12 11 11 11 11 11 11 11 11 10 10 10 9 9 9 9 8 8 8 8 8 8 7 8 8 8 8 7 7 7 7 7 7 7
12 12 11 11 11 11 11 11 11 10 10 10 10 10 10 10 9 9 9 8 8 8 8 8 8 7 7 7 8 7 7 7 7 7 7 7 7 6
11 11 11 11 11 10 10 10 10 10 10 10 10 10 10 9 9 9 8 8 8 8 8 8 7 7 7 7 7 7 7 7 7 7 7 6 6 6
11 11 10 10 10 10 10 10 10 10 10 9 9 9 9 9 9 8 8 8 8 8 8 7 7 7 7 7 7 7 7 7 7 7 6 6 6 6
10 10 10 10 10 10 9 9 9 9 9 9 9 9 9 9 8 8 8 8 8 8 8 7 7 7 7 7 7 7 7 6 6 6 6 6 6 6
10 10 10 9 9 9 9 9 9 9 9 9 9 8 8 8 8 8 8 8 7 8 8 7 7 7 6 6 6 6 6 6 6 6 6 6 6 6
9 9 9 9 9 9 9 9 9 8 8 8 8 8 8 8 8 7 7 7 7 7 7 7 7 6 6 6 6 6 6 6 6 5 5 5 5 5
8 9 9 8 8 8 8 8 8 8 8 8 8 7 7 7 7 7 7 7 7 7 6 6 6 6 6 6 6 6 5 5 5 5 5 5 5 5
8 8 8 8 8 8 8 8 8 7 7 7 7 7 7 7 7 7 6 6 6 6 6 6 5 5 5 5 5 5 5 5 4 4 4 4 4 4
8 8 8 8 7 7 7 7 7 7 7 7 7 6 6 6 6 6 6 6 5 5 5 6 6 5 4 4 4 4 5 4 4 4 4 4 4 4
7 7 7 7 7 7 7 7 7 7 6 6 6 6 6 6 6 6 5 5 5 5 5 5 5 4 4 4 4 4 4 4 4 4 3 3 3 3
7 7 7 6 6 6 6 6 6 6 6 6 6 6 5 5 5 5 5 5 4 4 4 4 4 4 3 3 3 3 3 3 3 3 3 3 3 3
Wind_Speed
2 2 2 1 2 2 3 4 3 2 2 2 1 1 2 3 2 2 2 2 3 3 4 4 4 4 4 4 3 2 2 1 1 2 2 2 2 2
1 2 1 1 1 2 2 2 2 3 2 2 2 1 3 2 2 2 2 2 2 3 3 4 4 4 3 3 2 2 1 1 1 0 1 1 1 2
1 2 1 1 2 1 1 2 2 3 3 1 0 0 1 1 1 2 2 2 2 2 3 3 3 3 3 3 2 2 1 1 0 0 0 0 1 1
2 2 1 1 1 1 2 2 2 2 3 2 1 0 1 1 1 1 2 2 2 2 3 3 3 3 3 3 3 2 2 2 1 1 1 1 1 2
3 3 2 2 2 1 2 2 1 2 2 3 1 1 0 0 0 1 0 1 2 3 4 4 4 4 4 4 4 4 4 3 3 3 3 3 3 3
3 3 3 3 3 3 2 2 2 3 3 3 1 0 0 1 1 0 1 1 1 2 2 3 4 5 5 5 5 5 5 4 4 3 3 3 3 3
2 2 3 3 4 3 3 3 3 3 3 2 2 0 0 0 1 1 1 1 2 1 1 2 3 3 4 6 6 6 6 6 5 4 4 4 4 4
2 2 2 2 4 4 4 5 5 5 5 4 3 3 3 3 2 2 1 1 2 2 1 2 2 2 5 5 6 7 7 7 6 6 5 5 5 5
3 3 2 1 2 2 3 3 4 5 7 6 5 5 5 5 4 3 2 2 3 2 1 3 2 3 5 6 7 8 8 8 7 7 7 7 6 6
4 4 4 3 3 3 3 2 2 3 5 5 6 7 6 6 6 5 4 2 1 2 2 2 2 3 4 5 7 8 8 8 8 8 7 7 7 7
3 3 4 4 5 5 4 3 2 3 3 5 6 6 7 7 6 4 2 2 1 2 1 2 2 2 3 4 6 7 8 8 8 8 8 8 7 7
2 3 4 4 5 5 5 5 4 4 2 1 2 2 4 5 7 6 5 3 2 2 3 2 2 1 3 3 4 5 6 8 8 9 9 8 8 6
3 3 3 5 5 5 5 5 6 4 2 2 2 1 1 2 3 4 5 4 4 4 4 3 2 2 2 3 3 4 5 5 6 7 9 9 9 7
4 3 4 5 5 5 4 4 5 4 2 2 1 2 2 3 2 3 5 6 6 6 6 5 3 3 2 3 4 3 3 5 5 5 6 8 9 9
3 4 4 4 3 3 4 5 4 3 3 3 3 4 3 3 2 1 1 2 2 3 4 5 3 3 3 4 3 3 3 3 5 4 5 5 6 6
2 3 3 3 2 3 2 3 3 3 4 4 4 3 2 1 2 2 2 1 1 3 3 4 5 4 4 4 4 4 4 3 3 4 4 4 6 7
1 0 1 1 1 2 2 2 2 3 3 3 3 3 2 2 2 2 2 2 2 3 3 2 2 4 4 4 4 5 4 4 4 3 3 4 5 7
2 2 3 3 4 4 4 3 3 4 4 4 4 4 4 4 3 2 2 3 4 4 3 2 1 1 2 3 6 5 4 4 4 3 3 4 5 5
2 3 4 4 4 4 4 4 4 4 4 4 4 4 4 4 3 3 3 3 4 4 4 3 2 2 3 5 4 5 5 4 3 3 4 4 6 6
3 4 4 4 4 4 4 4 4 3 3 4 4 4 4 4 4 4 4 5 5 4 3 3 4 4 6 6 4 4 6 5 4 4 4 4 4 6
4 4 4 4 4 4 5 4 4 4 4 4 5 5 5 5 5 5 5 6 5 5 5 6 6 5 2 1 3 4 4 7 7 5 4 3 3 3
4 5 4 4 4 4 4 4 4 5 5 5 5 5 5 5 6 6 6 5 6 6 7 5 2 2 2 4 6 6 5 5 6 8 8 6 3 4
5 5 4 4 5 4 4 5 6 5 5 5 5 5 5 5 5 5 6 6 5 5 5 4 3 3 4 5 6 6 6 5 4 3 5 9 11 12
Wind_Direction
162 151 146 159 155 153 152 153 151 170 235 244 237 234 201 182 184 162 151 135 137 142 143 135 130 133 133 132 131 125 116 111 84 70 59 60 58 47
163 144 141 156 148 152 157 155 146 156 193 223 218 225 197 195 203 187 178 146 148 161 157 150 146 146 145 144 145 147 143 137 119 88 54 47 48 33
181 166 187 162 149 150 141 141 145 138 161 240 200 168 171 187 188 195 192 180 192 190 177 166 160 160 160 164 168 167 174 177 102 71 13 354 346 343
198 170 194 162 157 156 148 148 152 147 148 163 199 187 204 200 185 185 203 199 209 216 204 198 196 197 198 200 201 204 210 220 239 256 275 279 304 313
193 187 200 170 181 177 158 155 160 138 128 145 182 210 264 125 26 305 251 237 231 231 226 226 225 224 225 227 227 230 227 229 241 257 268 272 279 291
196 192 190 181 188 182 170 168 148 127 122 127 140 196 267 326 119 245 314 315 278 241 236 239 239 241 242 243 240 237 232 232 236 243 257 264 268 277
200 202 199 193 189 185 177 173 156 148 147 148 161 168 249 242 236 228 239 289 296 267 260 256 244 250 256 254 248 242 235 233 235 241 245 252 259 265
194 219 219 208 210 202 192 183 175 170 176 178 192 202 227 218 207 201 211 269 282 274 200 271 237 248 257 251 243 240 238 236 238 243 248 249 251 259
193 201 223 221 191 187 195 195 206 200 190 187 194 210 211 210 191 199 209 214 238 247 204 266 267 254 256 254 247 243 241 240 241 245 247 247 252 257
199 196 197 213 213 187 178 189 229 239 217 202 205 213 212 202 193 196 200 211 285 273 179 235 268 266 271 261 254 247 244 243 243 243 246 250 252 256
217 208 199 211 222 195 174 192 232 267 240 217 217 212 207 197 177 146 151 155 267 270 223 205 252 282 282 270 262 248 242 242 246 246 248 252 251 253
231 232 220 217 218 200 183 186 208 237 228 210 207 211 200 196 188 179 178 182 213 253 232 196 235 271 289 280 271 267 255 250 247 250 251 250 249 249
219 237 240 227 220 211 198 197 209 200 189 193 207 215 211 202 206 200 191 187 202 234 220 183 211 222 237 278 288 268 253 249 247 256 254 251 246 234
222 230 235 229 221 212 206 205 191 170 161 174 203 221 224 229 228 212 208 211 218 226 213 191 200 207 223 264 273 276 267 250 239 248 251 250 246 242
231 231 229 224 221 219 213 200 186 180 177 195 221 234 232 224 204 200 226 232 253 247 217 211 210 212 212 234 250 255 266 261 237 235 240 237 232 228
244 242 236 231 230 224 218 214 205 200 199 214 223 234 221 202 211 206 221 232 267 288 276 247 227 210 225 240 238 253 242 240 244 239 235 242 245 235
213 224 245 232 222 229 233 224 214 207 215 223 219 221 223 227 236 221 215 215 228 254 274 297 269 242 238 224 240 247 246 251 246 235 231 247 246 240
150 206 227 228 227 224 227 232 225 222 223 223 223 221 222 224 234 230 216 219 235 247 255 264 283 326 324 283 233 234 244 250 255 243 226 236 255 253
185 224 231 231 233 230 227 227 231 232 224 221 226 228 227 226 227 229 227 233 242 247 253 245 224 217 256 274 273 224 229 248 250 250 240 233 245 253
226 231 237 241 242 238 234 233 236 235 228 229 232 232 227 225 229 232 232 234 241 248 252 243 232 230 237 250 263 273 241 232 235 246 251 248 258 269
241 243 245 244 245 242 239 234 231 233 233 231 231 232 231 228 233 236 236 240 240 243 245 247 247 250 252 264 281 281 274 251 247 238 232 239 259 260
247 246 246 246 246 243 240 237 236 236 234 237 240 237 233 230 233 235 235 236 237 241 249 256 253 228 225 239 259 270 278 288 277 260 241 227 221 229
247 247 247 246 243 244 243 242 241 242 239 237 240 242 237 235 237 236 236 236 240 245 252 256 248 238 240 243 254 263 270 279 282 269 264 264 259 257
Height
1546 1546 1546 1546 1546 1546 1546 1546 1547 1545 1545 1545 1545 1545 1545 1544 1544 1543 1542 1541 1540 1540 1539 1538 1538 1537 1537 1536 1536 1536 1535 1535 1535 1535 1535 1535 1534 1534
1545 1545 1545 1545 1545 1545 1545 1545 1545 1545 1544 1544 1544 1544 1544 1543 1543 1542 1541 1541 1540 1540 1539 1538 1538 1537 1537 1536 1536 1535 1535 1535 1534 1534 1534 1534 1533 1533
1543 1543 1543 1543 1543 1543 1543 1543 1543 1543 1543 1543 1543 1543 1543 1542 1542 1541 1541 1540 1539 1539 1539 1538 1537 1537 1536 1536 1535 1535 1534 1534 1533 1533 1533 1532 1532 1531
1542 1542 1542 1542 1541 1541 1541 1541 1541 1541 1541 1540 1540 1541 1541 1540 1540 1540 1539 1539 1538 1538 1537 1537 1536 1536 1535 1535 1534 1533 1533 1532 1532 1531 1531 1531 1530 1530
1540 1540 1540 1540 1540 1540 1539 1539 1539 1539 1539 1538 1538 1538 1538 1538 1538 1538 1537 1537 1536 1536 1535 1535 1535 1535 1534 1533 1532 1531 1531 1530 1530 1529 1529 1528 1528 1528
1538 1538 1538 1538 1538 1537 1537 1537 1537 1537 1537 1536 1536 1536 1536 1536 1536 1535 1534 1534 1534 1534 1533 1533 1533 1532 1532 1531 1530 1529 1529 1528 1528 1527 1527 1526 1526 1525
1535 1536 1535 1536 1535 1535 1535 1535 1535 1534 1534 1534 1534 1533 1533 1533 1533 1533 1532 1531 1531 1531 1531 1530 1530 1529 1529 1528 1528 1527 1526 1526 1525 1525 1524 1523 1523 1523
1533 1533 1533 1533 1533 1533 1532 1532 1533 1532 1532 1531 1531 1531 1530 1530 1531 1530 1530 1529 1528 1529 1527 1527 1527 1526 1526 1525 1525 1524 1523 1523 1522 1521 1521 1521 1520 1520
1530 1530 1530 1530 1530 1530 1529 1529 1529 1529 1529 1529 1528 1528 1528 1528 1528 1527 1527 1526 1525 1525 1525 1523 1523 1523 1523 1522 1522 1521 1520 1519 1519 1518 1518 1517 1517 1516
1527 1527 1527 1527 1527 1527 1526 1526 1526 1526 1526 1525 1525 1525 1525 1525 1525 1525 1524 1523 1523 1522 1522 1520 1520 1519 1519 1518 1518 1517 1516 1516 1515 1515 1514 1513 1513 1512
1524 1524 1524 1523 1523 1523 1523 1522 1522 1522 1522 1522 1522 1522 1522 1522 1522 1522 1521 1520 1518 1518 1519 1518 1516 1515 1515 1514 1513 1513 1512 1512 1511 1511 1510 1509 1509 1508
1520 1520 1520 1520 1520 1519 1519 1519 1518 1518 1518 1518 1518 1518 1518 1518 1518 1518 1517 1517 1516 1515 1515 1515 1513 1512 1511 1510 1509 1509 1508 1507 1507 1506 1506 1505 1505 1504
1516 1516 1516 1516 1516 1515 1515 1515 1515 1514 1514 1514 1514 1514 1514 1514 1514 1514 1514 1514 1513 1512 1512 1512 1510 1509 1508 1506 1505 1504 1504 1503 1502 1502 1501 1501 1500 1500
1512 1512 1512 1512 1512 1511 1511 1511 1511 1511 1510 1510 1510 1509 1509 1509 1509 1510 1510 1510 1509 1509 1509 1508 1507 1506 1504 1502 1500 1499 1499 1498 1498 1497 1496 1496 1495 1495
1508 1508 1508 1508 1508 1507 1507 1507 1507 1506 1506 1506 1505 1505 1505 1506 1506 1505 1505 1505 1505 1505 1504 1504 1503 1502 1500 1498 1496 1495 1494 1493 1492 1492 1491 1490 1490 1490
1504 1504 1504 1504 1504 1503 1503 1503 1502 1502 1502 1502 1501 1502 1502 1501 1501 1501 1501 1500 1499 1499 1499 1499 1498 1497 1495 1494 1493 1490 1489 1488 1487 1486 1485 1485 1485 1484
1500 1499 1499 1499 1499 1498 1498 1498 1498 1498 1497 1497 1497 1497 1497 1497 1497 1496 1496 1495 1494 1493 1493 1493 1493 1492 1490 1489 1487 1485 1484 1483 1482 1481 1480 1479 1478 1478
1496 1495 1494 1494 1494 1494 1493 1493 1493 1493 1493 1493 1493 1492 1492 1492 1492 1491 1491 1490 1489 1488 1488 1487 1487 1485 1484 1483 1482 1480 1479 1478 1477 1476 1475 1473 1472 1473
1491 1490 1490 1490 1489 1489 1489 1489 1489 1489 1488 1488 1488 1487 1487 1487 1486 1486 1485 1484 1483 1483 1482 1482 1481 1480 1478 1476 1475 1475 1474 1472 1471 1470 1469 1468 1467 1466
1486 1486 1485 1485 1485 1485 1484 1484 1484 1483 1483 1483 1482 1482 1482 1481 1481 1480 1479 1479 1478 1477 1476 1476 1475 1474 1472 1471 1470 1469 1469 1467 1465 1464 1463 1462 1461 1461
1481 1481 1480 1480 1480 1479 1479 1479 1478 1478 1477 1477 1476 1476 1476 1475 1474 1474 1473 1473 1472 1471 1470 1469 1469 1469 1468 1467 1464 1462 1462 1461 1460 1458 1457 1456 1455 1454
1476 1476 1475 1475 1474 1474 1474 1473 1472 1472 1471 1471 1470 1470 1470 1469 1468 1468 1467 1467 1466 1465 1464 1464 1464 1463 1462 1460 1458 1456 1455 1455 1454 1453 1453 1452 1450 1448
1471 1470 1470 1469 1469 1468 1468 1467 1466 1466 1465 1465 1464 1463 1463 1462 1462 1461 1461 1460 1460 1459 1458 1457 1457 1456 1455 1454 1452 1451 1450 1449 1447 1447 1446 1446 1446 1445